Location: R�serve Fauniques des Laurentides
(47.3100°N, 71.1900°W)
Time: 15:19:44
(UTC-04:00)

Cosmos 1674 - Visible Passes

Search period start: 28 June 2017 00:00
Search period end: 08 July 2017 00:00
Orbit: 497 x 524 km, 82.5° (Epoch: 27 June)

Date Brightness Start Highest point End Pass type
(mag) Time Alt. Az. Time Alt. Az. Time Alt. Az.
29 Jun 5.8 22:30:22 10° W 22:31:49 12° WNW 22:33:16 10° NW visible
30 Jun 5.7 22:12:59 10° WSW 22:15:07 14° WNW 22:17:15 10° NNW visible
01 Jul 5.6 21:55:50 10° WSW 21:58:25 18° WNW 22:01:01 10° NNW visible
02 Jul 5.4 21:38:49 10° WSW 21:41:44 21° WNW 21:44:41 10° NNW visible
03 Jul 5.1 21:21:53 10° SW 21:25:05 26° WNW 21:28:17 10° NNW visible
